Time,TemperatureF,DewpointF,PressureIn,WindDirection,WindDirectionDegrees,WindSpeedMPH,WindSpeedGustMPH,Humidity,HourlyPrecipIn,Conditions,Clouds,dailyrainin,SoftwareType,DateUTC
2013-07-06 00:00:00,88.8,39.8,29.45,SSW,192,3.0,10.0,18,0.00,CLR,,0.00,WeatherDisplay:10.37,2013-07-06 07:00:00,
2013-07-06 00:10:00,88.4,40.9,29.44,South,172,2.0,6.0,19,0.00,CLR,,0.00,WeatherDisplay:10.37,2013-07-06 07:10:00,
2013-07-06 00:15:00,88.0,40.6,29.44,South,173,2.0,6.0,19,0.00,CLR,,0.00,WeatherDisplay:10.37,2013-07-06 07:15:00,
2013-07-06 00:20:00,88.0,39.2,29.45,South,183,2.0,10.0,18,0.00,CLR,,0.00,WeatherDisplay:10.37,2013-07-06 07:20:00,
2013-07-06 00:25:00,88.6,38.2,29.44,South,187,2.0,12.0,17,0.00,CLR,,0.00,WeatherDisplay:10.37,2013-07-06 07:25:00,
2013-07-06 00:30:00,88.6,39.7,29.44,South,186,2.0,9.0,18,0.00,CLR,,0.00,WeatherDisplay:10.37,2013-07-06 07:30:00,
2013-07-06 00:40:00,88.9,38.4,29.44,SSW,201,7.0,12.0,17,0.00,CLR,,0.00,WeatherDisplay:10.37,2013-07-06 07:40:00,
2013-07-06 00:45:00,89.0,38.5,29.44,SSW,205,8.0,12.0,17,0.00,CLR,,0.00,WeatherDisplay:10.37,2013-07-06 07:45:00,
2013-07-06 00:50:00,88.6,38.2,29.44,SSW,201,2.0,9.0,17,0.00,CLR,,0.00,WeatherDisplay:10.37,2013-07-06 07:50:00,
2013-07-06 00:55:00,88.8,38.4,29.44,SSW,205,9.0,14.0,17,0.00,CLR,,0.00,WeatherDisplay:10.37,2013-07-06 07:55:00,
2013-07-06 01:00:00,88.7,39.7,29.44,SSW,211,7.0,13.0,18,0.00,CLR,,0.00,WeatherDisplay:10.37,2013-07-06 08:00:00,
2013-07-06 01:10:00,87.6,38.8,29.44,SSW,197,1.0,8.0,18,0.00,CLR,,0.00,WeatherDisplay:10.37,2013-07-06 08:10:00,
2013-07-06 01:15:00,87.2,38.5,29.45,SSW,194,5.0,9.0,18,0.00,CLR,,0.00,WeatherDisplay:10.37,2013-07-06 08:15:00,
2013-07-06 01:20:00,87.2,38.6,29.44,SSW,197,3.0,7.0,18,0.00,CLR,,0.00,WeatherDisplay:10.37,2013-07-06 08:20:00,
2013-07-06 01:25:00,87.6,38.8,29.43,SSW,195,2.0,7.0,18,0.00,CLR,,0.00,WeatherDisplay:10.37,2013-07-06 08:25:00,
2013-07-06 01:30:00,87.4,38.7,29.44,SSW,196,5.0,12.0,18,0.00,CLR,,0.00,WeatherDisplay:10.37,2013-07-06 08:30:00,
2013-07-06 01:40:00,87.4,38.7,29.44,SSW,196,5.0,8.0,18,0.00,CLR,,0.00,WeatherDisplay:10.37,2013-07-06 08:40:00,
2013-07-06 01:45:00,87.0,39.7,29.44,South,173,2.0,8.0,19,0.00,CLR,,0.00,WeatherDisplay:10.37,2013-07-06 08:45:00,
2013-07-06 01:50:00,86.5,39.3,29.43,South,173,2.0,10.0,19,0.00,CLR,,0.00,WeatherDisplay:10.37,2013-07-06 08:50:00,
2013-07-06 01:55:00,86.3,39.2,29.44,South,176,2.0,7.0,19,0.00,CLR,,0.00,WeatherDisplay:10.37,2013-07-06 08:55:00,
2013-07-06 02:00:00,86.2,39.1,29.44,South,175,3.0,6.0,19,0.00,CLR,,0.00,WeatherDisplay:10.37,2013-07-06 09:00:00,
2013-07-06 02:10:00,87.1,38.4,29.44,SSW,195,13.0,17.0,18,0.00,CLR,,0.00,WeatherDisplay:10.37,2013-07-06 09:10:00,
2013-07-06 02:15:00,87.6,38.8,29.43,South,189,5.0,12.0,18,0.00,CLR,,0.00,WeatherDisplay:10.37,2013-07-06 09:15:00,
2013-07-06 02:20:00,87.4,38.7,29.43,SSW,194,3.0,12.0,18,0.00,CLR,,0.00,WeatherDisplay:10.37,2013-07-06 09:20:00,
2013-07-06 02:25:00,87.2,38.5,29.43,South,187,0.0,7.0,18,0.00,CLR,,0.00,WeatherDisplay:10.37,2013-07-06 09:25:00,
2013-07-06 02:30:00,87.0,38.4,29.43,SSE,165,3.0,7.0,18,0.00,CLR,,0.00,WeatherDisplay:10.37,2013-07-06 09:30:00,
2013-07-06 02:35:00,86.7,38.1,29.43,SSE,166,2.0,6.0,18,0.00,CLR,,0.00,WeatherDisplay:10.37,2013-07-06 09:35:00,
2013-07-06 02:40:00,86.5,38.0,29.43,SSE,165,2.0,6.0,18,0.00,CLR,,0.00,WeatherDisplay:10.37,2013-07-06 09:40:00,
2013-07-06 02:45:00,86.5,38.0,29.43,SE,136,1.0,7.0,18,0.00,CLR,,0.00,WeatherDisplay:10.37,2013-07-06 09:45:00,
2013-07-06 02:50:00,85.9,37.5,29.43,SSE,162,3.0,7.0,18,0.00,CLR,,0.00,WeatherDisplay:10.37,2013-07-06 09:50:00,
2013-07-06 02:55:00,85.9,38.8,29.43,SSW,205,5.0,9.0,19,0.00,CLR,,0.00,WeatherDisplay:10.37,2013-07-06 09:55:00,
2013-07-06 03:00:00,86.0,37.5,29.43,SSW,199,7.0,12.0,18,0.00,CLR,,0.00,WeatherDisplay:10.37,2013-07-06 10:00:00,
2013-07-06 03:10:00,86.1,37.6,29.43,South,176,1.0,8.0,18,0.00,CLR,,0.00,WeatherDisplay:10.37,2013-07-06 10:10:00,
2013-07-06 03:15:00,85.9,37.5,29.43,South,175,1.0,7.0,18,0.00,CLR,,0.00,WeatherDisplay:10.37,2013-07-06 10:15:00,
2013-07-06 03:20:00,85.7,37.3,29.43,South,170,5.0,10.0,18,0.00,CLR,,0.00,WeatherDisplay:10.37,2013-07-06 10:20:00,
2013-07-06 03:25:00,85.9,37.5,29.43,SSE,166,1.0,12.0,18,0.00,CLR,,0.00,WeatherDisplay:10.37,2013-07-06 10:25:00,
2013-07-06 03:30:00,85.7,37.3,29.43,South,174,3.0,12.0,18,0.00,CLR,,0.00,WeatherDisplay:10.37,2013-07-06 10:30:00,
2013-07-06 03:40:00,85.3,35.5,29.43,SSE,160,6.0,12.0,17,0.00,CLR,,0.00,WeatherDisplay:10.37,2013-07-06 10:40:00,
2013-07-06 03:45:00,84.5,36.3,29.43,SE,135,2.0,10.0,18,0.00,CLR,,0.00,WeatherDisplay:10.37,2013-07-06 10:45:00,
2013-07-06 03:50:00,84.1,36.0,29.44,SE,133,3.0,6.0,18,0.00,CLR,,0.00,WeatherDisplay:10.37,2013-07-06 10:50:00,
2013-07-06 04:00:00,83.8,37.1,29.44,SE,136,2.0,4.0,19,0.00,CLR,,0.00,WeatherDisplay:10.37,2013-07-06 11:00:00,
2013-07-06 04:10:00,82.7,37.5,29.44,South,176,1.0,4.0,20,0.00,CLR,,0.00,WeatherDisplay:10.37,2013-07-06 11:10:00,
2013-07-06 04:20:00,81.9,36.8,29.44,South,180,5.0,7.0,20,0.00,CLR,,0.00,WeatherDisplay:10.37,2013-07-06 11:20:00,
2013-07-06 04:25:00,82.4,37.3,29.45,South,188,3.0,7.0,20,0.00,CLR,,0.00,WeatherDisplay:10.37,2013-07-06 11:25:00,
2013-07-06 04:30:00,82.6,37.5,29.44,South,191,2.0,6.0,20,0.00,CLR,,0.00,WeatherDisplay:10.37,2013-07-06 11:30:00,
2013-07-06 04:40:00,82.8,37.6,29.44,South,179,2.0,7.0,20,0.00,CLR,,0.00,WeatherDisplay:10.37,2013-07-06 11:40:00,
2013-07-06 04:45:00,83.0,36.5,29.44,South,179,1.0,6.0,19,0.00,CLR,,0.00,WeatherDisplay:10.37,2013-07-06 11:45:00,
2013-07-06 04:50:00,82.8,37.6,29.44,South,177,1.0,6.0,20,0.00,CLR,,0.00,WeatherDisplay:10.37,2013-07-06 11:50:00,
2013-07-06 04:55:00,82.5,37.3,29.45,South,175,1.0,4.0,20,0.00,CLR,,0.00,WeatherDisplay:10.37,2013-07-06 11:55:00,
2013-07-06 05:00:00,81.6,37.9,29.46,SW,221,0.0,7.0,21,0.00,CLR,,0.00,WeatherDisplay:10.37,2013-07-06 12:00:00,
2013-07-06 05:10:00,79.9,37.7,29.46,West,259,0.0,0.0,22,0.00,CLR,,0.00,WeatherDisplay:10.37,2013-07-06 12:10:00,
2013-07-06 05:15:00,78.8,36.7,29.47,West,259,0.0,0.0,22,0.00,CLR,,0.00,WeatherDisplay:10.37,2013-07-06 12:15:00,
2013-07-06 05:20:00,78.2,36.2,29.47,West,259,3.0,4.0,22,0.00,CLR,,0.00,WeatherDisplay:10.37,2013-07-06 12:20:00,
2013-07-06 05:25:00,77.9,38.2,29.47,West,259,1.0,3.0,24,0.00,CLR,,0.00,WeatherDisplay:10.37,2013-07-06 12:25:00,
2013-07-06 05:30:00,77.9,37.1,29.48,West,259,0.0,3.0,23,0.00,CLR,,0.00,WeatherDisplay:10.37,2013-07-06 12:30:00,
2013-07-06 05:40:00,77.0,37.4,29.48,West,259,2.0,5.0,24,0.00,CLR,,0.00,WeatherDisplay:10.37,2013-07-06 12:40:00,
2013-07-06 05:45:00,76.6,37.1,29.48,West,259,1.0,3.0,24,0.00,CLR,,0.00,WeatherDisplay:10.37,2013-07-06 12:45:00,
2013-07-06 05:50:00,75.8,37.5,29.49,WSW,257,5.0,6.0,25,0.00,CLR,,0.00,WeatherDisplay:10.37,2013-07-06 12:50:00,
2013-07-06 05:55:00,76.4,38.0,29.49,WSW,245,3.0,6.0,25,0.00,CLR,,0.00,WeatherDisplay:10.37,2013-07-06 12:55:00,
2013-07-06 06:00:00,77.0,38.5,29.49,SW,235,0.0,6.0,25,0.00,CLR,,0.00,WeatherDisplay:10.37,2013-07-06 13:00:00,
2013-07-06 06:10:00,77.4,38.8,29.49,SW,234,0.0,0.0,25,0.00,CLR,,0.00,WeatherDisplay:10.37,2013-07-06 13:10:00,
2013-07-06 06:15:00,77.3,40.7,29.49,SW,234,0.0,1.0,27,0.00,CLR,,0.00,WeatherDisplay:10.37,2013-07-06 13:15:00,
2013-07-06 06:20:00,77.1,40.5,29.49,SW,234,0.0,1.0,27,0.00,CLR,,0.00,WeatherDisplay:10.37,2013-07-06 13:20:00,
2013-07-06 06:25:00,77.2,35.4,29.50,SW,234,0.0,2.0,22,0.00,CLR,,0.00,WeatherDisplay:10.37,2013-07-06 13:25:00,
2013-07-06 06:30:00,77.7,35.8,29.50,SW,234,0.0,0.0,22,0.00,CLR,,0.00,WeatherDisplay:10.37,2013-07-06 13:30:00,
2013-07-06 06:40:00,78.3,38.5,29.50,SW,234,0.0,2.0,24,0.00,CLR,,0.00,WeatherDisplay:10.37,2013-07-06 13:40:00,
2013-07-06 06:45:00,78.6,38.8,29.50,SW,234,0.0,2.0,24,0.00,CLR,,0.00,WeatherDisplay:10.37,2013-07-06 13:45:00,
2013-07-06 06:50:00,79.7,38.6,29.50,SW,234,2.0,4.0,23,0.00,CLR,,0.00,WeatherDisplay:10.37,2013-07-06 13:50:00,
2013-07-06 07:00:00,80.3,38.0,29.50,SW,234,1.0,3.0,22,0.00,CLR,,0.00,WeatherDisplay:10.37,2013-07-06 14:00:00,
2013-07-06 07:10:00,81.2,38.7,29.49,SW,234,0.0,0.0,22,0.00,CLR,,0.00,WeatherDisplay:10.37,2013-07-06 14:10:00,
2013-07-06 07:15:00,81.8,38.0,29.49,SW,234,0.0,0.0,21,0.00,CLR,,0.00,WeatherDisplay:10.37,2013-07-06 14:15:00,
2013-07-06 07:20:00,82.4,38.5,29.49,SW,234,0.0,0.0,21,0.00,CLR,,0.00,WeatherDisplay:10.37,2013-07-06 14:20:00,
2013-07-06 07:25:00,83.1,37.9,29.49,SW,234,0.0,2.0,20,0.00,CLR,,0.00,WeatherDisplay:10.37,2013-07-06 14:25:00,
2013-07-06 07:30:00,83.6,38.3,29.49,SW,234,0.0,2.0,20,0.00,CLR,,0.00,WeatherDisplay:10.37,2013-07-06 14:30:00,
2013-07-06 07:40:00,83.7,38.3,29.49,SW,234,3.0,5.0,20,0.00,CLR,,0.00,WeatherDisplay:10.37,2013-07-06 14:40:00,
2013-07-06 07:45:00,84.0,37.3,29.50,SW,235,3.0,6.0,19,0.00,CLR,,0.00,WeatherDisplay:10.37,2013-07-06 14:45:00,
2013-07-06 07:50:00,84.3,37.5,29.50,SW,235,3.0,5.0,19,0.00,CLR,,0.00,WeatherDisplay:10.37,2013-07-06 14:50:00,
2013-07-06 07:55:00,84.5,37.7,29.50,SW,235,3.0,5.0,19,0.00,CLR,,0.00,WeatherDisplay:10.37,2013-07-06 14:55:00,
2013-07-06 08:00:00,84.8,37.9,29.50,SW,235,3.0,5.0,19,0.00,CLR,,0.00,WeatherDisplay:10.37,2013-07-06 15:00:00,
2013-07-06 08:10:00,85.5,37.1,29.50,SW,235,5.0,6.0,18,0.00,CLR,,0.00,WeatherDisplay:10.37,2013-07-06 15:10:00,
2013-07-06 08:15:00,85.9,37.5,29.50,SW,235,3.0,6.0,18,0.00,CLR,,0.00,WeatherDisplay:10.37,2013-07-06 15:15:00,
2013-07-06 08:20:00,86.3,37.8,29.50,SW,235,5.0,6.0,18,0.00,CLR,,0.00,WeatherDisplay:10.37,2013-07-06 15:20:00,
2013-07-06 08:25:00,87.1,37.0,29.51,SW,233,3.0,7.0,17,0.00,CLR,,0.00,WeatherDisplay:10.37,2013-07-06 15:25:00,
2013-07-06 08:30:00,87.8,36.0,29.50,SW,224,5.0,7.0,16,0.00,CLR,,0.00,WeatherDisplay:10.37,2013-07-06 15:30:00,
2013-07-06 08:40:00,89.3,35.6,29.50,WSW,241,6.0,9.0,15,0.00,CLR,,0.00,WeatherDisplay:10.37,2013-07-06 15:40:00,
2013-07-06 08:45:00,89.6,35.8,29.50,WSW,248,6.0,10.0,15,0.00,CLR,,0.00,WeatherDisplay:10.37,2013-07-06 15:45:00,
2013-07-06 08:50:00,90.1,36.2,29.50,WSW,254,5.0,8.0,15,0.00,CLR,,0.00,WeatherDisplay:10.37,2013-07-06 15:50:00,
2013-07-06 08:55:00,90.1,36.2,29.50,WSW,258,6.0,9.0,15,0.00,CLR,,0.00,WeatherDisplay:10.37,2013-07-06 15:55:00,
2013-07-06 09:00:00,90.4,36.5,29.49,West,259,3.0,7.0,15,0.00,CLR,,0.00,WeatherDisplay:10.37,2013-07-06 16:00:00,
2013-07-06 09:10:00,91.1,35.2,29.50,WSW,255,3.0,7.0,14,0.00,CLR,,0.00,WeatherDisplay:10.37,2013-07-06 16:10:00,
2013-07-06 09:15:00,91.3,37.2,29.50,WSW,255,5.0,7.0,15,0.00,CLR,,0.00,WeatherDisplay:10.37,2013-07-06 16:15:00,
2013-07-06 09:25:00,91.9,35.9,29.50,WSW,252,2.0,6.0,14,0.00,CLR,,0.00,WeatherDisplay:10.37,2013-07-06 16:25:00,
2013-07-06 09:30:00,92.3,36.2,29.49,WSW,256,3.0,5.0,14,0.00,CLR,,0.00,WeatherDisplay:10.37,2013-07-06 16:30:00,
2013-07-06 09:40:00,92.7,36.5,29.48,West,263,3.0,5.0,14,0.00,CLR,,0.00,WeatherDisplay:10.37,2013-07-06 16:40:00,
2013-07-06 09:45:00,93.5,37.2,29.48,West,263,1.0,2.0,14,0.00,CLR,,0.00,WeatherDisplay:10.37,2013-07-06 16:45:00,
2013-07-06 09:50:00,94.5,37.9,29.48,West,263,2.0,6.0,14,0.00,CLR,,0.00,WeatherDisplay:10.37,2013-07-06 16:50:00,
2013-07-06 09:55:00,95.4,36.8,29.48,West,264,3.0,5.0,13,0.00,CLR,,0.00,WeatherDisplay:10.37,2013-07-06 16:55:00,
2013-07-06 10:00:00,95.9,37.1,29.48,West,263,2.0,5.0,13,0.00,CLR,,0.00,WeatherDisplay:10.37,2013-07-06 17:00:00,
2013-07-06 10:20:00,97.8,34.4,29.47,SE,128,3.0,10.0,11,0.00,CLR,,0.00,WeatherDisplay:10.37,2013-07-06 17:20:00,
2013-07-06 10:35:00,99.2,35.5,29.47,SE,128,7.0,14.0,11,0.00,CLR,,0.00,WeatherDisplay:10.37,2013-07-06 17:35:00,
2013-07-06 10:45:00,99.4,35.6,29.47,ESE,123,8.0,13.0,11,0.00,CLR,,0.00,WeatherDisplay:10.37,2013-07-06 17:45:00,
2013-07-06 11:30:00,100.6,36.5,29.47,South,184,6.0,13.0,11,0.00,CLR,,0.00,WeatherDisplay:10.37,2013-07-06 18:30:00,
2013-07-06 11:55:00,101.5,34.8,29.47,SSE,150,7.0,14.0,10,0.00,CLR,,0.00,WeatherDisplay:10.37,2013-07-06 18:55:00,
2013-07-06 12:00:00,101.5,34.8,29.47,SSE,158,6.0,14.0,10,0.00,CLR,,0.00,WeatherDisplay:10.37,2013-07-06 19:00:00,
2013-07-06 12:35:00,101.8,35.0,29.46,SSE,162,5.0,12.0,10,0.00,CLR,,0.00,WeatherDisplay:10.37,2013-07-06 19:35:00,
2013-07-06 12:55:00,102.5,35.6,29.45,SSE,163,7.0,23.0,10,0.00,CLR,,0.00,WeatherDisplay:10.37,2013-07-06 19:55:00,
2013-07-06 13:05:00,102.3,32.8,29.45,South,188,8.0,17.0,9,0.00,CLR,,0.00,WeatherDisplay:10.37,2013-07-06 20:05:00,
2013-07-06 13:15:00,103.3,33.5,29.45,South,185,6.0,17.0,9,0.00,CLR,,0.00,WeatherDisplay:10.37,2013-07-06 20:15:00,
2013-07-06 13:25:00,102.8,33.1,29.45,SW,214,6.0,18.0,9,0.00,CLR,,0.00,WeatherDisplay:10.37,2013-07-06 20:25:00,
2013-07-06 13:30:00,103.1,33.4,29.45,SSW,212,13.0,20.0,9,0.00,CLR,,0.00,WeatherDisplay:10.37,2013-07-06 20:30:00,
2013-07-06 13:40:00,103.3,36.1,29.44,SSW,192,3.0,15.0,10,0.00,CLR,,0.00,WeatherDisplay:10.37,2013-07-06 20:40:00,
2013-07-06 13:45:00,103.6,33.7,29.44,SSE,167,6.0,20.0,9,0.00,CLR,,0.00,WeatherDisplay:10.37,2013-07-06 20:45:00,
2013-07-06 13:50:00,103.8,33.9,29.44,SSE,157,9.0,18.0,9,0.00,CLR,,0.00,WeatherDisplay:10.37,2013-07-06 20:50:00,
2013-07-06 13:55:00,103.8,36.5,29.43,SSE,162,5.0,16.0,10,0.00,CLR,,0.00,WeatherDisplay:10.37,2013-07-06 20:55:00,
2013-07-06 14:10:00,103.8,33.9,29.43,SSE,165,7.0,14.0,9,0.00,CLR,,0.00,WeatherDisplay:10.37,2013-07-06 21:10:00,
2013-07-06 14:15:00,103.8,33.9,29.43,South,188,10.0,16.0,9,0.00,CLR,,0.00,WeatherDisplay:10.37,2013-07-06 21:15:00,
2013-07-06 14:20:00,103.8,33.9,29.43,South,189,5.0,17.0,9,0.00,CLR,,0.00,WeatherDisplay:10.37,2013-07-06 21:20:00,
2013-07-06 14:25:00,104.3,34.2,29.43,South,181,10.0,21.0,9,0.00,CLR,,0.00,WeatherDisplay:10.37,2013-07-06 21:25:00,
2013-07-06 14:40:00,104.6,31.5,29.42,SSE,161,7.0,18.0,8,0.00,CLR,,0.00,WeatherDisplay:10.37,2013-07-06 21:40:00,
2013-07-06 14:45:00,104.9,31.8,29.42,SSE,163,7.0,18.0,8,0.00,CLR,,0.00,WeatherDisplay:10.37,2013-07-06 21:45:00,
2013-07-06 14:50:00,104.5,31.5,29.42,SSE,159,8.0,20.0,8,0.00,CLR,,0.00,WeatherDisplay:10.37,2013-07-06 21:50:00,
2013-07-06 15:00:00,104.7,31.6,29.42,South,174,8.0,18.0,8,0.00,CLR,,0.00,WeatherDisplay:10.37,2013-07-06 22:00:00,
2013-07-06 15:10:00,104.6,28.3,29.42,SSE,168,8.0,16.0,7,0.00,CLR,,0.00,WeatherDisplay:10.37,2013-07-06 22:10:00,
2013-07-06 15:15:00,104.9,31.8,29.41,South,171,8.0,20.0,8,0.00,CLR,,0.00,WeatherDisplay:10.37,2013-07-06 22:15:00,
2013-07-06 15:20:00,104.4,31.4,29.41,SSE,166,7.0,20.0,8,0.00,CLR,,0.00,WeatherDisplay:10.37,2013-07-06 22:20:00,
2013-07-06 15:30:00,104.5,31.5,29.41,SSE,168,8.0,17.0,8,0.00,CLR,,0.00,WeatherDisplay:10.37,2013-07-06 22:30:00,
2013-07-06 15:40:00,104.8,28.4,29.41,South,174,9.0,18.0,7,0.00,CLR,,0.00,WeatherDisplay:10.37,2013-07-06 22:40:00,
2013-07-06 15:45:00,104.4,28.1,29.41,SSE,168,10.0,22.0,7,0.00,CLR,,0.00,WeatherDisplay:10.37,2013-07-06 22:45:00,
2013-07-06 15:55:00,104.1,27.9,29.41,South,176,12.0,23.0,7,0.00,CLR,,0.00,WeatherDisplay:10.37,2013-07-06 22:55:00,
2013-07-06 16:05:00,104.1,31.2,29.41,South,184,9.0,24.0,8,0.00,CLR,,0.00,WeatherDisplay:10.37,2013-07-06 23:05:00,
2013-07-06 16:10:00,104.6,28.3,29.41,South,177,6.0,25.0,7,0.00,CLR,,0.00,WeatherDisplay:10.37,2013-07-06 23:10:00,
2013-07-06 16:15:00,104.4,31.4,29.41,SSE,160,7.0,22.0,8,0.00,CLR,,0.00,WeatherDisplay:10.37,2013-07-06 23:15:00,
2013-07-06 16:25:00,104.1,27.9,29.41,South,174,9.0,18.0,7,0.00,CLR,,0.00,WeatherDisplay:10.37,2013-07-06 23:25:00,
2013-07-06 16:30:00,103.8,27.7,29.41,South,172,10.0,22.0,7,0.00,CLR,,0.00,WeatherDisplay:10.37,2013-07-06 23:30:00,
2013-07-06 16:40:00,104.4,28.1,29.41,SSE,168,12.0,26.0,7,0.00,CLR,,0.00,WeatherDisplay:10.37,2013-07-06 23:40:00,
2013-07-06 17:00:00,103.7,27.6,29.41,SSE,166,13.0,21.0,7,0.00,CLR,,0.00,WeatherDisplay:10.37,2013-07-07 00:00:00,
2013-07-06 17:10:00,103.5,30.7,29.41,South,181,9.0,26.0,8,0.00,CLR,,0.00,WeatherDisplay:10.37,2013-07-07 00:10:00,
2013-07-06 17:25:00,103.1,30.5,29.41,SSE,168,10.0,23.0,8,0.00,CLR,,0.00,WeatherDisplay:10.37,2013-07-07 00:25:00,
2013-07-06 17:35:00,103.1,30.4,29.41,SSE,163,9.0,21.0,8,0.00,CLR,,0.00,WeatherDisplay:10.37,2013-07-07 00:35:00,
2013-07-06 17:50:00,102.3,32.8,29.41,South,172,13.0,21.0,9,0.00,CLR,,0.00,WeatherDisplay:10.37,2013-07-07 00:50:00,
2013-07-06 17:55:00,101.7,35.0,29.41,South,182,13.0,26.0,10,0.00,CLR,,0.00,WeatherDisplay:10.37,2013-07-07 00:55:00,
2013-07-06 18:00:00,102.3,35.4,29.41,SSW,206,9.0,16.0,10,0.00,CLR,,0.00,WeatherDisplay:10.37,2013-07-07 01:00:00,
2013-07-06 18:15:00,102.1,35.3,29.41,SSW,210,7.0,20.0,10,0.00,CLR,,0.00,WeatherDisplay:10.37,2013-07-07 01:15:00,
2013-07-06 18:25:00,101.7,32.3,29.40,SW,228,12.0,21.0,9,0.00,CLR,,0.00,WeatherDisplay:10.37,2013-07-07 01:25:00,
2013-07-06 18:40:00,101.5,32.2,29.40,SW,234,12.0,20.0,9,0.00,CLR,,0.00,WeatherDisplay:10.37,2013-07-07 01:40:00,
2013-07-06 18:45:00,101.0,31.8,29.41,WSW,251,7.0,17.0,9,0.00,CLR,,0.00,WeatherDisplay:10.37,2013-07-07 01:45:00,
2013-07-06 18:55:00,100.8,31.7,29.41,SW,231,5.0,12.0,9,0.00,CLR,,0.00,WeatherDisplay:10.37,2013-07-07 01:55:00,
2013-07-06 19:00:00,100.6,31.5,29.41,WSW,241,10.0,14.0,9,0.00,CLR,,0.00,WeatherDisplay:10.37,2013-07-07 02:00:00,
2013-07-06 19:20:00,99.3,30.5,29.42,WSW,237,14.0,18.0,9,0.00,CLR,,0.00,WeatherDisplay:10.37,2013-07-07 02:20:00,
2013-07-06 19:30:00,99.0,30.3,29.42,WSW,253,13.0,15.0,9,0.00,CLR,,0.00,WeatherDisplay:10.37,2013-07-07 02:30:00,
2013-07-06 19:40:00,98.7,32.7,29.42,West,259,6.0,12.0,10,0.00,CLR,,0.00,WeatherDisplay:10.37,2013-07-07 02:40:00,
2013-07-06 19:45:00,98.1,32.3,29.43,WSW,257,5.0,12.0,10,0.00,CLR,,0.00,WeatherDisplay:10.37,2013-07-07 02:45:00,
2013-07-06 19:55:00,96.6,33.5,29.43,West,269,8.0,12.0,11,0.00,CLR,,0.00,WeatherDisplay:10.37,2013-07-07 02:55:00,
2013-07-06 20:00:00,96.1,33.1,29.43,West,265,5.0,10.0,11,0.00,CLR,,0.00,WeatherDisplay:10.37,2013-07-07 03:00:00,
2013-07-06 20:15:00,95.1,32.3,29.44,West,267,8.0,12.0,11,0.00,CLR,,0.00,WeatherDisplay:10.37,2013-07-07 03:15:00,
2013-07-06 20:25:00,94.5,31.9,29.44,West,263,5.0,12.0,11,0.00,CLR,,0.00,WeatherDisplay:10.37,2013-07-07 03:25:00,
2013-07-06 20:30:00,94.3,31.7,29.44,WSW,256,7.0,15.0,11,0.00,CLR,,0.00,WeatherDisplay:10.37,2013-07-07 03:30:00,
2013-07-06 20:40:00,93.8,33.5,29.44,SW,225,6.0,9.0,12,0.00,CLR,,0.00,WeatherDisplay:10.37,2013-07-07 03:40:00,
2013-07-06 20:45:00,93.6,33.3,29.45,SW,218,2.0,8.0,12,0.00,CLR,,0.00,WeatherDisplay:10.37,2013-07-07 03:45:00,
2013-07-06 20:50:00,93.1,35.0,29.45,SW,216,2.0,5.0,13,0.00,CLR,,0.00,WeatherDisplay:10.37,2013-07-07 03:50:00,
2013-07-06 21:05:00,91.4,33.6,29.46,SW,215,2.0,7.0,13,0.00,CLR,,0.00,WeatherDisplay:10.37,2013-07-07 04:05:00,
2013-07-06 21:10:00,91.2,33.5,29.47,SSW,210,5.0,7.0,13,0.00,CLR,,0.00,WeatherDisplay:10.37,2013-07-07 04:10:00,
2013-07-06 21:15:00,91.4,33.6,29.47,SSW,192,3.0,10.0,13,0.00,CLR,,0.00,WeatherDisplay:10.37,2013-07-07 04:15:00,
2013-07-06 21:20:00,91.5,33.7,29.47,South,188,3.0,13.0,13,0.00,CLR,,0.00,WeatherDisplay:10.37,2013-07-07 04:20:00,
2013-07-06 21:25:00,91.4,33.6,29.46,SSW,193,3.0,9.0,13,0.00,CLR,,0.00,WeatherDisplay:10.37,2013-07-07 04:25:00,
2013-07-06 21:30:00,91.4,33.6,29.46,SSW,194,2.0,7.0,13,0.00,CLR,,0.00,WeatherDisplay:10.37,2013-07-07 04:30:00,
2013-07-06 21:40:00,91.0,33.3,29.46,SSW,196,5.0,12.0,13,0.00,CLR,,0.00,WeatherDisplay:10.37,2013-07-07 04:40:00,
2013-07-06 21:45:00,91.0,33.3,29.46,SSW,205,6.0,12.0,13,0.00,CLR,,0.00,WeatherDisplay:10.37,2013-07-07 04:45:00,
2013-07-06 21:50:00,91.0,33.3,29.46,SSW,205,8.0,12.0,13,0.00,CLR,,0.00,WeatherDisplay:10.37,2013-07-07 04:50:00,
2013-07-06 21:55:00,91.2,33.5,29.46,SSW,206,7.0,12.0,13,0.00,CLR,,0.00,WeatherDisplay:10.37,2013-07-07 04:55:00,
2013-07-06 22:00:00,91.6,33.8,29.46,SSW,205,8.0,13.0,13,0.00,CLR,,0.00,WeatherDisplay:10.37,2013-07-07 05:00:00,
2013-07-06 22:10:00,90.7,33.1,29.46,SW,215,5.0,7.0,13,0.00,CLR,,0.00,WeatherDisplay:10.37,2013-07-07 05:10:00,
2013-07-06 22:15:00,90.3,32.8,29.47,SW,215,2.0,5.0,13,0.00,CLR,,0.00,WeatherDisplay:10.37,2013-07-07 05:15:00,
2013-07-06 22:20:00,89.9,32.5,29.47,SSW,213,2.0,5.0,13,0.00,CLR,,0.00,WeatherDisplay:10.37,2013-07-07 05:20:00,
2013-07-06 22:25:00,89.7,34.1,29.46,SSW,211,2.0,6.0,14,0.00,CLR,,0.00,WeatherDisplay:10.37,2013-07-07 05:25:00,
2013-07-06 22:30:00,89.5,34.0,29.46,SSW,211,3.0,6.0,14,0.00,CLR,,0.00,WeatherDisplay:10.37,2013-07-07 05:30:00,
2013-07-06 22:40:00,89.3,33.8,29.46,SSW,199,2.0,4.0,14,0.00,CLR,,0.00,WeatherDisplay:10.37,2013-07-07 05:40:00,
2013-07-06 22:45:00,89.0,33.6,29.46,SSW,199,3.0,5.0,14,0.00,CLR,,0.00,WeatherDisplay:10.37,2013-07-07 05:45:00,
2013-07-06 22:50:00,88.8,33.4,29.46,South,177,2.0,10.0,14,0.00,CLR,,0.00,WeatherDisplay:10.37,2013-07-07 05:50:00,
2013-07-06 22:55:00,88.8,33.4,29.46,South,170,3.0,7.0,14,0.00,CLR,,0.00,WeatherDisplay:10.37,2013-07-07 05:55:00,
2013-07-06 23:00:00,88.8,33.4,29.46,South,171,2.0,6.0,14,0.00,CLR,,0.00,WeatherDisplay:10.37,2013-07-07 06:00:00,
2013-07-06 23:10:00,88.6,33.3,29.46,South,171,2.0,4.0,14,0.00,CLR,,0.00,WeatherDisplay:10.37,2013-07-07 06:10:00,
2013-07-06 23:15:00,88.6,33.3,29.47,South,171,0.0,5.0,14,0.00,CLR,,0.00,WeatherDisplay:10.37,2013-07-07 06:15:00,
2013-07-06 23:20:00,88.3,33.1,29.47,South,171,0.0,4.0,14,0.00,CLR,,0.00,WeatherDisplay:10.37,2013-07-07 06:20:00,
2013-07-06 23:25:00,88.2,33.0,29.47,ESE,122,0.0,6.0,14,0.00,CLR,,0.00,WeatherDisplay:10.37,2013-07-07 06:25:00,
2013-07-06 23:30:00,88.6,33.3,29.47,East,79,1.0,3.0,14,0.00,CLR,,0.00,WeatherDisplay:10.37,2013-07-07 06:30:00,
2013-07-06 23:40:00,88.4,33.1,29.46,East,80,1.0,3.0,14,0.00,CLR,,0.00,WeatherDisplay:10.37,2013-07-07 06:40:00,
2013-07-06 23:45:00,88.2,33.0,29.46,East,80,1.0,2.0,14,0.00,CLR,,0.00,WeatherDisplay:10.37,2013-07-07 06:45:00,
2013-07-06 23:50:00,87.8,34.4,29.47,East,80,0.0,1.0,15,0.00,CLR,,0.00,WeatherDisplay:10.37,2013-07-07 06:50:00,
2013-07-06 23:55:00,87.6,34.2,29.47,East,80,1.0,2.0,15,0.00,CLR,,0.00,WeatherDisplay:10.37,2013-07-07 06:55:00,